Location: Eimen
(51.8766°N, 9.7806°E)
Time: 15:55:22
(UTC+00:00)

Envisat - Pass Details

Date: 19 August 2024
Orbit: 762 x 764 km, 98.3° (Epoch: 09 September)

Event Time Altitude Azimuth Distance (km) Brightness Sun altitude
Rises 02:46:08 0° 14° (NNE) 3,241 7.2 -12.2°
Reaches altitude 10° 02:48:27 10° 15° (NNE) 2,310 6.4 -12.0°
Maximum altitude 02:53:33 87° 106° (ESE) 772 3.0 -11.3°
Drops below altitude 10° 02:58:37 10° 195° (SSW) 2,292 5.0 -10.7°
Enters shadow 02:59:14 - 196° (SSW) 2,538 5.2 -10.6°
